Regional Weather Roundup
Issued by NWS

Home | Current Version | Previous Version | Text Only | Print | Product List | Glossary On
Versions: 1 2 3 4 5 6 7 8 9 10 11 12 13 14 15 16 17 18 19 20 21 22 23 24 25 26 27 28 29 30 31 32 33 34 35 36 37 38 39 40 41 42 43 44 45 46 47 48 49 50
000
ASUS42 KTBW 212110
RWRFL
FLORIDA REGIONAL WEATHER ROUNDUP
NATIONAL WEATHER SERVICE TAMPA BAY RUSKIN FL
400 PM EST SUN DEC 21 2014

NOTE: "FAIR" INDICATES FEW OR NO CLOUDS BELOW 12,000 FEET WITH NO
SIGNIFICANT WEATHER AND/OR OBSTRUCTIONS TO VISIBILITY.


FLZ001>010-012>015-112-114-115-212200-
PANHANDLE FLORIDA

CITY           SKY/WX    TMP DP  RH WIND       PRES   REMARKS
PENSACOLA      CLOUDY    55  53  93 N5        30.02S
PENSACOLA NAS  CLOUDY    57  55  93 NE7       30.02S
MILTON NAS     CLOUDY    56  53  90 CALM      30.03S
CRESTVIEW      CLOUDY    57  53  86 N5        30.04F
DUKE FIELD     CLOUDY    55  54  94 NE3       30.03S
VALPARAISO     CLOUDY    56  54  93 NE5       30.03F FOG
MARY ESTHER    CLOUDY    57  52  84 NE3       30.02R
PANAMA CITY    CLOUDY    56  54  93 NE8       30.01F FOG
TYNDALL AFB    LGT RAIN  57  57 100 E2        30.02R FOG
APALACHICOLA   LGT RAIN  61  58  90 E7        29.99F FOG

STATION/POSITION SKY/WX   TEMP    WIND        PRES    WAVE   SWELL
                          AIR SEA DIR/SP/G            HT/PER HT/PER
                          (F)     (DEG/KT/KT) (MB)    (FT/S) (FT/S)
30.1N   87.6W              62 70   30/ 14/ 17 1015.3F   2/ 6
29.2N   88.2W              66 74   50/ 10/ 12 1014.5F   3/ 5   2/ 5
28.7N   86.0W              68 75   40/ 12/ 14 1014.8F   3/ 6   2/ 7
PANAMA CITY BEAC           56 61   20/  4/  8 1016.1R
CAPE SAN BLAS    NOT AVBL
TOWER C                    59      60/ 16/ 17 1015.2F
28.5N   84.5W              74 73  120/  6/  6 1014.5F   3/ 4   2/ 4

$$
FLZ011-016>038-118-127-128-134-139-239-212200-
NORTH FLORIDA

CITY           SKY/WX    TMP DP  RH WIND       PRES   REMARKS
MARIANNA       CLOUDY    55  55 100 NE9       30.02F FOG
TALLAHASSEE    LGT RAIN  58  54  86 NE3       30.02F
PERRY          LGT RAIN  58  57  97 NE5       30.05R
CROSS CITY       N/A     63  63 100 NE3       30.02S
LAKE CITY      CLOUDY    55  55 100 E3        30.04F
GAINESVILLE    CLOUDY    64  62  93 E6        30.03F FOG
MAYPORT NAS    CLOUDY    60  59  96 N13       30.04S FOG
JACKSONVILLE   CLOUDY    57  57 100 NE9       30.05R FOG
JAX NAS        LGT RAIN  62  58  86 NE8       30.05S
JAX CRAIG      CLOUDY    60  58  92 NE8       30.05R FOG
JAX CECIL      CLOUDY    59  57  94 N6        30.06R FOG
FERNANDINA BEA CLOUDY    63  61  94 NE8       30.04S
ST AUGUSTINE   CLOUDY    64  63  94 N5        30.04F FOG

STATION/POSITION SKY/WX   TEMP    WIND        PRES    WAVE   SWELL
                          AIR SEA DIR/SP/G            HT/PER HT/PER
                          (F)     (DEG/KT/KT) (MB)    (FT/S) (FT/S)
SHELL POINT                57      30/  4/  9   N/A
KEATON BEACH               60      50/  6/  8 1016.6R
CEDAR KEY                  64     110/  8/  9 1016.6R
FERNANDINA                 57 58   30/ 10/ 15 1016.9F
30.7N   81.3W                 61                N/A     5/ 5
MAYPORT                    60 61   20/ 11/ 15   N/A
31.4N   80.9W              56 59   40/ 21/ 25 1017.9F   5/ 7   2/12
ST AUGUSTINE               63     350/  9/  9 1017.5R

$$
FLZ040-043>046-052-053-057-058-063-144-212200-
INTERIOR CENTRAL FLORIDA

CITY           SKY/WX    TMP DP  RH WIND       PRES   REMARKS
OCALA          MOSUNNY   66  63  88 CALM      30.02F
THE VILLAGES     N/A     66  66 100 CALM      29.93S FOG
LEESBURG       LGT RAIN  71  63  75 W5        30.03R
SANFORD        CLOUDY    77  61  57 SW3       30.01S
ORLANDO EXEC   CLOUDY    76  63  64 CALM      30.01F
ORLANDO INTL   CLOUDY    78  63  59 S6        30.01F
KISSIMMEE      MOSUNNY   79  64  61 SE5       30.00F
WINTER HAVEN   CLOUDY    78  61  55 SW8       30.01F
LAKELAND       PTSUNNY   75  61  60 S5        30.01S
OKEECHOBEE     CLOUDY    75  64  69 S5        30.02S

$$
FLZ041-047-054-059-064-141-147-212200-
EAST CENTRAL FLORIDA

CITY           SKY/WX    TMP DP  RH WIND       PRES   REMARKS
ORMOND BEACH   PTSUNNY   68  63  83 CALM      30.03S
DAYTONA BEACH  CLOUDY    70  63  78 NE5       30.03R
DELAND         CLOUDY   N/A N/A N/A E7        30.02F
JFK SPACE CTR  CLOUDY    74  65  72 SE6       30.03R
TITUSVILLE     CLOUDY    73  66  78 SE9       30.02S
CAPE CANAVERAL CLOUDY    74  66  75 SE7       30.02R
PATRICK AFB    PTSUNNY   73  68  84 SE10      30.02S
MELBOURNE      PTSUNNY   75  66  73 SE12      30.01F
VERO BEACH     PTSUNNY   76  66  71 SE10      30.02F
FT PIERCE      CLOUDY    76  65  68 SE14      30.02S
STUART         MOSUNNY   77  64  65 SE12      30.04S

STATION/POSITION SKY/WX   TEMP    WIND        PRES    WAVE   SWELL
                          AIR SEA DIR/SP/G            HT/PER HT/PER
                          (F)     (DEG/KT/KT) (MB)    (FT/S) (FT/S)
28.5N   80.2W              74 76  170/ 10/ 12 1017.1F
28.9N   78.5W              75 77  190/ 10/ 12 1018.0R   3/ 8   3/ 8
TRIDENT PIER               72 66  120/  3/  5 1016.3R
28.4N   80.5W                 68                N/A     1/11
27.6N   80.2W                 76                N/A     2/11

$$
FLZ050-056-061-142-242-148-248-149-249-151-251-155-255-
160-260-212200-
WEST CENTRAL FLORIDA

CITY           SKY/WX    TMP DP  RH WIND       PRES   REMARKS
CRYSTAL RIVER  LGT RAIN  64  63  94 CALM      30.02F
INVERNESS      TSTM      64  64 100 S3        30.05R
BROOKSVILLE    RAIN      68  66  93 NE5       30.03R FOG
ZEPHYRHILLS    CLOUDY    72  63  73 CALM      30.01S
CLEARWATER     TSTM      71  64  78 SW6       30.03R
TAMPA INTL     CLOUDY    73  63  70 SW5       30.01R
TAMPA EXEC     CLOUDY    77  64  65 CALM      30.00F
PLANT CITY     CLOUDY    79  59  50 S5        30.02R
MACDILL AFB    CLOUDY    73  67  81 SW5       30.00R
PETER O KNIGHT CLOUDY    75  64  69 SW3       30.00S
ST PETERSBURG  CLOUDY    74  62  66 W8        29.99R
SARASOTA       CLOUDY    76  66  71 S15       29.98S
VENICE         MOCLDY    73  66  78 S13G18    30.01R

STATION/POSITION SKY/WX   TEMP    WIND        PRES    WAVE   SWELL
                          AIR SEA DIR/SP/G            HT/PER HT/PER
                          (F)     (DEG/KT/KT) (MB)    (FT/S) (FT/S)
CEDAR KEY                  64     110/  8/  9 1016.6R
28.5N   84.5W              74 73  120/  6/  6 1014.5F   3/ 4   2/ 4
27.3N   84.3W                 74                N/A     3/ 5
CLEARWATER BEACH           68 64  170/  9/ 12 1016.6R
MIDDLE TAMPA BAY           71     190/  8/  9 1015.8R
VENICE                     70 66  160/ 11/ 12 1015.8R

$$
FLZ066-069-070-075>078-162-262-165-265-212200-
SOUTHWEST FLORIDA AND KEYS

CITY           SKY/WX    TMP DP  RH WIND       PRES   REMARKS
PUNTA GORDA    CLOUDY    78  64  61 S9        30.01F
FT MYERS       CLOUDY    78  67  68 S12       29.98F
SOUTHWEST INTL CLOUDY    79  64  60 S12       30.00F
NAPLES         CLOUDY    78  66  66 S10       30.00F
MARCO ISLAND   CLOUDY    77  66  69 S14       30.01S
MARATHON       MOSUNNY   79  69  71 SE6       30.00F
KEY WEST NAS   PTSUNNY   78  69  73 SE14      30.00S
KEY WEST INTL  MOSUNNY   78  68  71 SE12      30.01R

STATION/POSITION SKY/WX   TEMP    WIND        PRES    WAVE   SWELL
                          AIR SEA DIR/SP/G            HT/PER HT/PER
                          (F)     (DEG/KT/KT) (MB)    (FT/S) (FT/S)
VENICE                     70 66  160/ 11/ 12 1015.8R
NAPLES                     77 74  160/  8/ 13 1016.6S
26.0N   85.6W              76 76  130/ 10/ 12 1013.3S   3/ 7   2/ 7
DRY TORTUGAS               75     140/  9/  9 1015.4F
NW FL BAY                  74     130/  5/  6 1016.9F
SAND KEY                   77     130/ 14/ 17 1015.8S
SOMBRERO KEY               78     140/ 15/ 17 1016.7F
LONG KEY                   76 72  140/ 10/ 10 1017.1F
MOLASSES REEF              75 76  130/ 11/ 13 1016.4F

$$
FLZ067-068-071>074-168-172>174-212200-
SOUTHEAST FLORIDA

CITY           SKY/WX    TMP DP  RH WIND       PRES   REMARKS
W PALM BEACH   PTSUNNY   78  65  63 SE13      30.02S
FT LAUDER-EXEC MOSUNNY   76  64  66 SE8       30.02S
FT LAUDERDALE  PTSUNNY   75  64  68 SE12      30.02S
POMPANO BEACH  MOSUNNY   77  64  64 SE9       30.03R
PEMBROKE PINES CLOUDY    77  63  61 SE10      30.04R
OPA LOCKA      PTSUNNY   76  64  66 SE12      30.03R
MIAMI          PTSUNNY   76  63  64 SE10G16   30.03S
WEST KENDALL   PTSUNNY   77  64  64 SE10      30.03S
HOMESTEAD      PTSUNNY   77  64  63 E8        30.03S

STATION/POSITION SKY/WX   TEMP    WIND        PRES    WAVE   SWELL
                          AIR SEA DIR/SP/G            HT/PER HT/PER
                          (F)     (DEG/KT/KT) (MB)    (FT/S) (FT/S)
PORT EVERGLADES            76     140/  8/ 11 1016.7
VIRGINIA KEY               75 73  150/  6/  9 1017.3R
LAKE WORTH                 75 77  150/ 12/ 13 1016.7S
FOWEY ROCKS                75 75  120/ 10/ 12 1017.0F
SETTLEMENT POINT           76     160/  9/ 10 1018.0F

$$



USA.gov is the U.S. government's official web portal to all federal, state and local government web resources and services.